Date String (YYYY-MM-DD hh:mm:ss) UTC,Instrument flags,absolute air pressure of the measurement (hPa),sample flow rate (lpm),inlet stack bypass flow (lpm),air temperature of the measurement (°C),ambient temperature measured by the external sensor (°C),aerosol sample conditioner tube jacket temperature (°C),OPC LED temperature (°C),internal box temperature (°C),relative humidity of the measurement (%),span deviation,mass concentration of particles derived from Lorenz-Mie calculation of OPC scattering (μg/m³),mass concentration of particles derived from Lorenz-Mie calculation of OPC scattering (μg/m³),mass concentration of particles derived from Lorenz-Mie calculation of OPC scattering (μg/m³)
DateTimeUTC,F1_M11,P_M11,Q1_M11,Q2_M11,T1_M11,T2_M11,T3_M11,T4_M11,T5_M11,U1_M11,ZSPAN_M11,X0_M11,X2_M11,X1_M11
2023-12-01 09:00:00,SystemResetWarning,0821.1,5.01,000.00,019.6,018.7,000.0,027.9,020.8,15.4,0001.7,0012.71,0007.72,0007.11
2023-12-01 09:01:00,SystemResetWarning,0821.1,5.00,000.00,019.6,018.6,000.0,027.9,020.8,15.5,0002.1,0012.73,0007.75,0007.15
2023-12-01 09:02:00,SystemResetWarning,0821.2,5.00,000.00,019.6,018.6,000.0,027.9,020.8,15.5,0001.9,0013.03,0007.78,0007.17
2023-12-01 09:03:00,SystemResetWarning,0821.1,5.00,000.00,019.6,018.6,000.0,027.9,020.7,15.5,0001.2,0013.59,0007.84,0007.20
2023-12-01 09:04:00,SystemResetWarning,0821.2,5.00,000.00,019.6,018.6,000.0,027.9,020.7,15.4,0001.3,0014.68,0007.89,0007.24
2023-12-01 09:05:00,SystemResetWarning,0821.1,5.00,000.00,019.6,018.6,000.0,027.9,020.7,15.4,0001.0,0015.29,0007.89,0007.28
2023-12-01 09:06:00,SystemResetWarning,0821.0,5.00,000.00,019.6,018.6,000.0,027.9,020.7,15.4,0001.2,0014.61,0007.87,0007.30
2023-12-01 09:07:00,SystemResetWarning,0821.0,5.00,000.00,019.6,018.6,000.0,027.9,020.7,15.4,0000.1,0014.39,0007.90,0007.33
2023-12-01 09:08:00,SystemResetWarning,0821.0,5.00,000.00,019.6,018.6,000.0,027.9,020.7,15.4,0000.0,0014.53,0007.93,0007.34
2023-12-01 09:09:00,SystemResetWarning,0821.2,5.00,000.00,019.5,018.6,000.0,027.9,020.7,15.3,0000.4,0014.67,0008.00,0007.36
2023-12-01 09:10:00,SystemResetWarning,0821.0,5.00,000.00,019.5,018.6,000.0,027.9,020.7,15.3,0000.0,0014.81,0008.04,0007.38
2023-12-01 09:11:00,SystemResetWarning,0820.9,5.00,000.00,019.5,018.6,000.0,027.9,020.7,15.4,0000.0,0014.87,0008.07,0007.39
2023-12-01 09:12:00,SystemResetWarning,0820.9,5.00,000.00,019.5,018.6,000.0,027.9,020.7,15.4,0000.0,0014.87,0008.10,0007.41
2023-12-01 09:13:00,SystemResetWarning,0821.0,5.00,000.00,019.5,018.6,000.0,027.9,020.7,15.4,0000.0,0014.48,0008.08,0007.40
2023-12-01 09:14:00,SystemResetWarning,0820.8,5.01,000.00,019.5,018.6,000.0,027.9,020.8,15.4,0000.0,0014.00,0008.03,0007.37
2023-12-01 09:15:00,SystemResetWarning,0820.9,5.00,000.00,019.5,018.6,000.0,027.8,020.7,15.4,0000.0,0012.92,0008.01,0007.35
2023-12-01 09:16:00,SystemResetWarning,0820.9,5.00,000.00,019.5,018.6,000.0,027.8,020.7,15.4,0000.0,0012.13,0008.01,0007.32
2023-12-01 09:17:00,SystemResetWarning,0820.9,5.00,000.00,019.5,018.6,000.0,027.8,020.7,15.4,0000.0,0012.04,0007.99,0007.31
2023-12-01 09:18:00,SystemResetWarning,0820.8,5.00,000.00,019.5,018.6,000.0,027.8,020.7,15.4,0000.0,0012.68,0007.97,0007.28
2023-12-01 09:19:00,SystemResetWarning,0820.9,5.00,000.00,019.5,018.6,000.0,027.8,020.8,15.4,0000.0,0012.75,0007.95,0007.27
2023-12-01 09:20:00,SystemResetWarning,0820.8,4.99,000.00,019.5,018.6,000.0,027.8,020.8,15.4,0000.0,0012.56,0007.91,0007.27
2023-12-01 09:21:00,SystemResetWarning,0820.8,5.00,000.00,019.5,018.5,000.0,027.8,020.7,15.4,0000.0,0012.27,0007.87,0007.26
2023-12-01 09:22:00,SystemResetWarning,0820.8,5.00,000.00,019.5,018.5,000.0,027.8,020.7,15.4,0000.0,0012.31,0007.83,0007.25
2023-12-01 09:23:00,SystemResetWarning,0820.8,5.00,000.00,019.5,018.5,000.0,027.8,020.7,15.4,0000.0,0012.43,0007.80,0007.24
2023-12-01 09:24:00,SystemResetWarning,0820.8,5.01,000.00,019.5,018.5,000.0,027.8,020.7,15.4,0000.0,0013.22,0007.81,0007.23
2023-12-01 09:25:00,SystemResetWarning,0820.8,5.01,000.00,019.5,018.5,000.0,027.8,020.7,15.4,0000.0,0013.60,0007.84,0007.24
2023-12-01 09:26:00,SystemResetWarning,0820.8,5.00,000.00,019.5,018.5,000.0,027.8,020.7,15.4,0000.0,0013.54,0007.83,0007.25
2023-12-01 09:27:00,SystemResetWarning,0820.9,5.00,000.00,019.5,018.5,000.0,027.8,020.7,15.4,0000.0,0013.57,0007.82,0007.26
2023-12-01 09:28:00,SystemResetWarning,0821.1,5.00,000.00,019.5,018.5,000.0,027.8,020.7,15.5,0000.0,0013.60,0007.85,0007.26
2023-12-01 09:29:00,SystemResetWarning,0820.9,5.00,000.00,019.5,018.5,000.0,027.8,020.6,15.5,0000.5,0013.02,0007.85,0007.26
2023-12-01 09:30:00,SystemResetWarning,0820.8,4.99,000.00,019.5,018.5,000.0,027.8,020.6,15.4,0001.8,0013.04,0007.89,0007.29
2023-12-01 09:31:00,SystemResetWarning,0820.8,5.00,000.00,019.4,018.5,000.0,027.8,020.6,15.4,0003.0,0013.43,0007.88,0007.29
2023-12-01 09:32:00,SystemResetWarning,0820.8,5.00,000.00,019.4,018.4,000.0,027.8,020.5,15.3,0002.9,0013.51,0007.89,0007.29
2023-12-01 09:33:00,SystemResetWarning,0820.8,5.01,000.00,019.4,018.4,000.0,027.8,020.5,15.3,0002.7,0013.98,0007.94,0007.31
2023-12-01 09:34:00,SystemResetWarning,0820.8,5.01,000.00,019.4,018.4,000.0,027.8,020.5,15.4,0000.2,0013.83,0007.96,0007.33
2023-12-01 09:35:00,SystemResetWarning,0820.8,5.00,000.00,019.3,018.4,000.0,027.7,020.4,15.4,0000.3,0012.99,0007.94,0007.35
2023-12-01 09:36:00,SystemResetWarning,0820.8,5.00,000.00,019.3,018.3,000.0,027.7,020.4,15.5,0003.0,0012.60,0007.93,0007.35
2023-12-01 09:37:00,SystemResetWarning,0820.8,5.00,000.00,019.3,018.3,000.0,027.7,020.4,15.5,0003.3,0013.23,0007.91,0007.36
2023-12-01 09:38:00,SystemResetWarning,0820.9,4.99,000.00,019.3,018.3,000.0,027.7,020.4,15.5,0003.6,0013.13,0007.89,0007.35
2023-12-01 09:39:00,SystemResetWarning,0820.8,5.00,000.00,019.3,018.3,000.0,027.7,020.3,15.6,0003.9,0013.22,0007.88,0007.35
2023-12-01 09:40:00,SystemResetWarning,0820.8,5.00,000.00,019.2,018.3,000.0,027.7,020.3,15.6,0003.9,0013.39,0007.88,0007.36
2023-12-01 09:41:00,SystemResetWarning,0820.8,5.00,000.00,019.2,018.3,000.0,027.7,020.3,15.6,0004.0,0013.26,0007.88,0007.35
2023-12-01 09:42:00,SystemResetWarning,0820.8,5.01,000.00,019.2,018.3,000.0,027.7,020.2,15.6,0004.2,0012.81,0007.86,0007.35
2023-12-01 09:43:00,SystemResetWarning,0820.8,5.00,000.00,019.2,018.2,000.0,027.6,020.2,15.7,0004.1,0012.80,0007.84,0007.36
2023-12-01 09:44:00,SystemResetWarning,0820.8,4.99,000.00,019.2,018.2,000.0,027.6,020.2,15.7,0004.1,0012.24,0007.83,0007.36
2023-12-01 09:45:00,SystemResetWarning,0820.8,5.00,000.00,019.1,018.2,000.0,027.6,020.2,15.7,0003.5,0012.28,0007.85,0007.36
2023-12-01 09:46:00,SystemResetWarning,0820.7,5.00,000.00,019.1,018.2,000.0,027.6,020.2,15.8,0003.0,0012.37,0007.89,0007.38
2023-12-01 09:47:00,SystemResetWarning,0820.7,4.99,000.00,019.1,018.1,000.0,027.6,020.2,15.8,0001.5,0012.36,0007.90,0007.39
2023-12-01 09:48:00,SystemResetWarning,0820.6,4.99,000.00,019.1,018.1,000.0,027.6,020.2,15.9,0000.6,0011.95,0007.96,0007.41
2023-12-01 09:49:00,SystemResetWarning,0820.7,5.00,000.00,019.0,018.1,000.0,027.6,020.2,15.9,0000.0,0012.00,0008.04,0007.45
2023-12-01 09:50:00,SystemResetWarning,0820.7,4.99,000.00,019.0,018.1,000.0,027.5,020.2,15.9,0001.8,0012.18,0008.14,0007.49
2023-12-01 09:51:00,SystemResetWarning,0820.7,5.00,000.00,019.0,018.1,000.0,027.5,020.1,15.9,0001.6,0012.14,0008.18,0007.52
2023-12-01 09:52:00,SystemResetWarning,0820.7,5.00,000.00,019.0,018.1,000.0,027.5,020.1,15.9,0000.1,0012.34,0008.24,0007.55
2023-12-01 09:53:00,SystemResetWarning,0820.6,5.00,000.00,019.0,018.1,000.0,027.5,020.1,16.0,0000.4,0012.90,0008.29,0007.58
2023-12-01 09:54:00,SystemResetWarning,0820.6,5.00,000.00,019.0,018.1,000.0,027.5,020.1,16.0,0000.0,0013.66,0008.36,0007.61
2023-12-01 09:55:00,SystemResetWarning,0820.6,5.00,000.00,019.0,018.1,000.0,027.5,020.1,16.0,0000.0,0014.63,0008.41,0007.62
2023-12-01 09:56:00,SystemResetWarning,0820.6,5.00,000.00,019.0,018.1,000.0,027.5,020.1,16.0,0002.2,0015.17,0008.47,0007.63
2023-12-01 09:57:00,SystemResetWarning,0820.6,5.00,000.00,019.0,018.1,000.0,027.5,020.1,16.0,0002.7,0015.52,0008.51,0007.64
2023-12-01 09:58:00,SystemResetWarning,0820.6,5.00,000.00,019.0,018.1,000.0,027.5,020.1,16.1,0003.4,0016.63,0008.52,0007.65
2023-12-01 09:59:00,SystemResetWarning,0820.6,5.00,000.00,019.0,018.1,000.0,027.4,020.1,16.1,0003.6,0016.67,0008.53,0007.66
